Weather in Fedurino

Russia / Yaroslavl Oblast     58°02′38″N   40°27′00″E
temp.,
°C
wind,
m/s
gust,
m/s
humid.,
%
clouds,
%
prec.,
mm/h
press.,
hPa
HPBL,
m
16 may, sun
sun1600:00+13s310960 0.0 1009225
03:00+11s310961 0.0 1009228
06:00+13ssw411941 0.0 1009392
09:00+17sw610755 0.0 1010866
12:00+19sw6107099 0.3 10111523
15:00+19sw59701 1.1 10111464
18:00+19sw49733 0.8 1011957
21:00+14sw399199 2.0 1012171
17 may, mon
mon1700:00+12wsw26955 0.0 1013118
03:00+11wsw22953 0.0 101523
06:00+14sw1291100 0.0 101684
09:00+17s1277100 0.0 1017390
12:00+21sse235761 0.0 10171149
15:00+23se235322 0.0 10161356
18:00+22ese2566100 0.0 1016376
21:00+17ene378398 0.0 1015119
18 may, tue
tue1800:00+15e31293100 1.7 1015264
03:00+13e359685 1.7 101592
06:00+16e3994100 0.0 1015263
09:00+21se4966100 0.0 1015453
12:00+25se69543 0.0 1014940
15:00+27se59545 0.0 10141482
18:00+24se5116230 0.0 1013681
21:00+20ese4157487 0.0 1013432
19 may, wed
wed1900:00+17se4147686 0.0 1013385
03:00+16ese311845 0.0 1013259
06:00+17ese514735 0.0 1013369
09:00+22se5125925 0.0 1012594
12:00+27se6125018 0.0 1012921
15:00+28se611480 0.0 10111485
18:00+25se612575 0.0 1011917
21:00+21se5157445 0.3 1011568
20 may, thu
thu2000:00+15e3982100 1.1 1011143
03:00+14e229673 1.3 101128
06:00+17se379538 0.0 1010260
09:00+21se47725 0.0 1009689
12:00+25se711555 0.0 10081422
15:00+25se814610 0.4 10071836
18:00+19ssw614774 1.1 10081277
21:00+15sse310865 1.1 1008453